Location: Be?chatów
(51.3665°N, 19.3745°E)
Time: 22:10:02
(UTC+00:00)

Cosmos 1812 Rocket - Pass Details

Date: 19 May 2025
Orbit: 601 x 624 km, 82.5° (Epoch: 16 June)

Event Time Altitude Azimuth Distance (km) Brightness Sun altitude
Exits shadow 20:48:58 13° 202° (SSW) 1,760 5.5 -14.7°
Maximum altitude 20:52:46 63° 283° (WNW) 676 3.9 -15.0°
Drops below altitude 10° 20:57:04 10° 5° (N) 1,961 7.1 -15.2°
Sets 20:59:19 0° 9° (N) 2,872 8.0 -15.4°
